Location: Arpaise
(41.0333°N, 14.7333°E)
Time: 06:49:24
(UTC+00:00)

ERS-1 Rocket - Pass Details

Date: 05 July 2020
Orbit: 752 x 758 km, 98.5° (Epoch: 05 August)

Event Time Altitude Azimuth Distance (km) Brightness Sun altitude
Exits shadow 20:56:50 31° 189° (S) 1,320 3.8 -19.6°
Maximum altitude 20:59:12 62° 258° (WSW) 853 3.3 -19.8°
Drops below altitude 10° 21:04:13 10° 340° (NNW) 2,295 6.6 -20.3°
Sets 21:06:33 0° 344° (NNW) 3,224 7.7 -20.5°
